Home > Weather > Mabalacat > Past weeks

Flag for Philippines Past Weather in Mabalacat, Philippines — Yesterday and Last 2 Weeks

Now
93 °F

Broken clouds.


Feels Like: 110 °F
Forecast: 80 / 93 °F
Wind: 5 mph from East

Location: Clarkfield Pampanga International Airport

Current Time: May 30, 2016 at 4:49:24 PM

Latest Report: May 30, 2016 at 4:00 PM


Visibility: N/A

Pressure: 29.80 "Hg

Humidity: 63%

Dew Point: 79 °F

Location of MabalacatLocation

Past Weather in Mabalacat — Graph

°F

Mabalacat Temperature Yesterday

Maximum temperature yesterday: 91 °F (at 2:00 PM)
Minimum temperature yesterday: 77 °F (at 9:00 PM)
Average temperature yesterday: 84 °F

High & Low Weather Summary for the Past Weeks

 TemperatureHumidityPressure
High95 °F (May 15, 4:00 PM)100% (May 17, 4:00 AM)29.95 "Hg (May 17, 4:00 AM)
Low75 °F (May 19, 1:00 AM)53% (May 15, 4:00 PM)29.74 "Hg (May 16, 3:00 PM)
Average84 °F81%29.85 "Hg
* Reported May 15 4:00 PM — May 30 4:00 PM, Mabalacat, Weather by CustomWeather, © 2016

Note: Actual official high and low records may vary slightly from our data, if they occured in-between our weather recording intervals... More about our weather records

Advertising

Mabalacat Weather History for the Previous 24 Hours

Scroll right to see more
 ConditionsComfort  
Time TempWeatherWind HumidityBarometerVisibility
4:00 PM
Mon, May 30
93 °FBroken clouds.5 mph63%29.80 "HgN/A
3:00 PM93 °FBroken clouds.3 mph63%29.80 "HgN/A
2:00 PM93 °FBroken clouds.3 mph63%29.83 "HgN/A
1:00 PM91 °FBroken clouds.2 mph67%29.86 "HgN/A
12:00 PM90 °FPartly sunny.2 mph71%29.86 "Hg6 mi
11:00 AM88 °FPartly sunny.2 mph84%29.89 "Hg6 mi
10:00 AM86 °FPartly sunny.2 mph89%29.89 "Hg6 mi
9:00 AM86 °FPartly sunny.7 mph84%29.89 "Hg6 mi
8:00 AM84 °FPartly sunny.2 mph84%29.89 "Hg6 mi
7:00 AM79 °FPartly sunny.5 mph89%29.86 "Hg5 mi
6:00 AM77 °FBroken clouds.5 mph94%29.86 "Hg6 mi
5:00 AM77 °FPartly cloudy.6 mph94%29.86 "HgN/A
4:00 AM77 °FPartly cloudy.5 mph94%29.83 "HgN/A
3:00 AM77 °FPartly cloudy.1 mph94%29.83 "HgN/A
2:00 AM77 °FPartly cloudy.1 mph94%29.83 "HgN/A
1:00 AM79 °FPartly cloudy.3 mph89%29.83 "HgN/A
12:00 AM77 °FPartly cloudy.6 mph94%29.86 "Hg6 mi
11:00 PM
Sun, May 29
77 °FPassing clouds.3 mph94%29.89 "Hg6 mi
10:00 PM77 °FPassing clouds.3 mph94%29.89 "Hg6 mi
9:00 PM77 °FMostly cloudy.3 mph100%29.86 "Hg6 mi
8:00 PM79 °FLight rain. Mostly cloudy.8 mph89%29.89 "Hg6 mi
7:00 PM79 °FThunderstorms. Mostly cloudy.7 mph94%29.89 "Hg4 mi
6:00 PM82 °FSprinkles. More clouds than sun.10 mph89%29.86 "Hg4 mi
5:00 PM86 °FThunderstorms. More clouds than sun.8 mph84%29.80 "Hg5 mi
4:00 PM88 °FMore clouds than sun.8 mph75%29.77 "Hg6 mi
Weather by CustomWeather, © 2016

See weather overviewHow to use our weather pages